Weather in Alba Iulia

Romania     46°04′20″N   23°34′22″E
temp.,
°C
wind,
m/s
gust,
m/s
humid.,
%
clouds,
%
prec.,
mm/h
press.,
hPa
HPBL,
m
22 october, fri
fri2200:00+13wsw2358100 0.0 101579
03:00+12wsw376698 0.0 1015168
06:00+12w2584100 0.2 1016131
09:00+12wsw1288100 0.6 101896
12:00+12sw1387100 0.6 1019272
15:00+16w4663100 0.6 1017704
18:00+12wsw3579100 0.1 1017173
21:00+12wsw2279100 0.1 101860
23 october, sat
sat2300:00+10wsw2283100 0.0 101814
03:00+10wsw1389100 0.4 1019121
06:00+10ssw1296100 2.7 1020141
09:00+10wsw479266 2.8 1022407
12:00+13wsw67584 0.0 1023967
15:00+14w78400 0.0 10221222
18:00+11w6104825 0.0 1024553
21:00+10wsw585698 0.0 1026521
24 october, sun
sun2400:00+7w49684 0.0 1027212
03:00+5wsw33773 0.0 102850
06:00+3w22813 0.0 102914
09:00+4w12745 0.0 103166
12:00+10ssw11490 0.0 1031633
15:00+12e22374 0.0 10301525
18:00+9ese22451 0.0 103110
21:00+5e22540 0.0 103314
25 october, mon
mon2500:00+4ne22580 0.0 103314
03:00+3nne11623 0.0 103310
06:00+2ne11654 0.0 103310
09:00+3ne11633 0.0 103434
12:00+8ene33435 0.0 1032537
15:00+12ne34351 0.0 1030824
18:00+9n22430 0.0 102815
21:00+6nnw11520 0.0 102910
26 october, tue
tue2600:00+4nnw00560 0.0 102910
03:00+3nw006277 0.0 102910
06:00+2wnw0067100 0.0 102810
09:00+3ne1166100 0.0 102814
12:00+9ene114977 0.0 1027367
15:00+12e113886 0.0 1025549
18:00+9ese114794 0.0 102410
21:00+6w115775 0.0 102610